This is the latest recevied weather packets stored in our database for station/object W1HS. If no packets are shown the sender has not sent any weather packets the latest 10 day(s).
| Time | Temp. | Humidity | Pressure | Rain* | Wind** | Luminosity | Snow |
|---|---|---|---|---|---|---|---|
| 1777757299 | 9.44° C | 68% | 989.6 hPa | 0 mm | - | 54 W/m² | - |
| 1777756698 | 9.44° C | 75% | 989.6 hPa | 0 mm | - | 46 W/m² | - |
| 1777756100 | 9.44° C | 78% | 989.5 hPa | 0 mm | - | 92 W/m² | - |
| 1777755500 | 9.44° C | 83% | 989.6 hPa | 0 mm | - | 100 W/m² | - |
| 1777754900 | 9.44° C | 81% | 989.6 hPa | 0 mm | - | 86 W/m² | - |
| 1777754300 | 9.44° C | 84% | 989.5 hPa | 0 mm | - | 123 W/m² | - |
| 1777753700 | 9.44° C | 83% | 989.6 hPa | 0 mm | - | 86 W/m² | - |
| 1777753100 | 9.44° C | 85% | 989.6 hPa | 0 mm | - | 102 W/m² | - |
| 1777752500 | 9.44° C | 85% | 989.6 hPa | 0 mm | - | 132 W/m² | - |
| 1777751900 | 9.44° C | 84% | 989.7 hPa | 0 mm | - | 124 W/m² | - |
| 1777751299 | 10° C | 83% | 989.8 hPa | 0 mm | - | 151 W/m² | - |
| 1777750700 | 10° C | 82% | 989.9 hPa | 0 mm | - | 79 W/m² | - |
| 1777750102 | 10° C | 83% | 989.9 hPa | 0 mm | - | 91 W/m² | - |
| 1777749500 | 9.44° C | 78% | 989.9 hPa | 0 mm | - | 91 W/m² | - |
| 1777748900 | 10° C | 80% | 989.9 hPa | 0 mm | - | 121 W/m² | - |
| 1777748302 | 10° C | 78% | 989.9 hPa | 0 mm | - | 74 W/m² | - |
| 1777747700 | 10° C | 79% | 990 hPa | 0 mm | - | 176 W/m² | - |
| 1777747100 | 10° C | 78% | 990 hPa | 0 mm | - | 174 W/m² | - |
| 1777746502 | 10° C | 79% | 990.1 hPa | 0 mm | - | 320 W/m² | - |
| 1777745899 | 10° C | 80% | 990.2 hPa | 0 mm | - | 238 W/m² | - |
| 1777745300 | 10.56° C | 74% | 990.1 hPa | 0 mm | - | 178 W/m² | - |
| 1777744702 | 10.56° C | 79% | 990.3 hPa | 0 mm | - | 784 W/m² | - |
| 1777744099 | 10° C | 82% | 990.4 hPa | 0 mm | - | 422 W/m² | - |
| 1777743499 | 10° C | 80% | 990.4 hPa | 0.25 mm | - | 251 W/m² | - |
| 1777742899 | 10° C | 81% | 990.4 hPa | 0.25 mm | - | 645 W/m² | - |
* Rain latest hour (hover to see other rain measurements)
** Current wind speed in m/s (hover to see current wind gust speed)